THOR ABLESTAR DEB, 1522

Orbit data source: Space-Track

THOR ABLESTAR DEB, 1522 is space debris in LEO originally from a launch on Fri, 13 Aug 1965 UTC launched from the Air Force Western Test Range (AFWTR). Debris objects in space refer to the collection of defunct objects orbiting the Earth. Examples of debris include non-operational satellites, rocket bodies, and fragments generated from explosions, collisions, or faulty payload assembly.

Loading next visibility...
Identifier
1522, 1965-065L
Orbit
LEO
Country
Flag of USUS
Related business
Manufacturer
Unknown
Mission
Spacecraft
Bus & Motor
Unknown
Mass
Unknown
Launch date (UTC)
1965-08-13 (61 years ago)
Launch vehicle
Unknown
Launch site
Air Force Western Test Range (AFWTR)
Object type
Payload
Rocket body
Debris
Shape & HBR
Unknown shape, 0.4 m
Radar Cross Section
Medium (>0.1 m² and <1 m²)

Expand to show TLE details & history
Last TLE update: 8 hours ago

TLE from 8 hours ago
0 THOR ABLESTAR DEB
1  1522U 65065L   26120.00739602  .00000060  00000-0  10268-3 0  9996
2  1522  90.0636 126.1743 0071704  24.2608   2.9489 13.33853969953370
Epoch: 2026-04-30T00:10Z
TLE epoch observation values (Epoch: 2026-04-30T00:10:39.016Z)
Latitude
27.28876°
Longitude
-94.48109°
Altitude
1,081.846 km
Speed
7.34 km/s
True Right ascension
08h 24m 33s
True Declination
27° 09' 18"
Sunlit
Object was in daylight at epoch
Visualization orbit readout
Latitude
Unknown
Longitude
Unknown
Altitude
Unknown
Speed
Unknown
Apparent Right ascension
Unknown
Apparent Declination
Unknown
Sunlit
N/A
Visualization observer readout
Local Sidereal Time
15:38:33
Azimuth
Unknown
Elevation
Unknown
Doppler factor
Unknown
Orbital elements
Apogee altitude
1,183.166 km
Perigee altitude
1,075.503 km
Semi-major axis
7,507.472 km
Eccentricity
0.00717
Inclination
90.0636°
RAAN
126.1743°
Arg. of periapsis
24.2608°
True anomaly
2.99155°
Mean anomaly
2.9489°
Eccentric anomaly
2.97019°
Mean motion
3.33659 °/min
Orbital period
107.89 mins
BSTAR
0.00010268
Loading maneuver chart data...
Computing Atmospheric mass density...
Loading historical data...
Loading historical data...
Loading historical data...
Loading historical data...
Loading historical data...
Loading historical data...
Loading historical data...

Documentation

Showing up to 5 results
|